QPF
0.13 0.12 0.15 0.19 0.19 0.17 0.18 0.17 0.16 0.15 0.14 0.09 0.05 0.05 0.05 0.05 0.07 0.06 0.07 0.08 0.05 0.03 0.02 0.03 0.02 0.02 0.01 0.01 0.01 0.02 0.01 0.00 0.00 0.00 0.01 0.02 0.03 0.02 0.02 0.01 0.01 0.01 0.01 0.01 0.01 0.00 0.01 0.01 0.01
0.06 0.14 0.23 0.23 0.16 0.16 0.18 0.16 0.20 0.15 0.11 0.06 0.06 0.04 0.02 0.02 0.02 0.02 0.05 0.09 0.07 0.04 0.01 0.01 0.02 0.01 0.01 0.01 0.00 0.01 0.00 0.00 0.00 0.00 0.00 0.01 0.02 0.01 0.01 0.02 0.02 0.02 0.02 0.01 0.01 0.01 0.01 0.01 0.01
0.10 0.21 0.24 0.20 0.16 0.15 0.16 0.17 0.15 0.09 0.07 0.04 0.05 0.03 0.02 0.02 0.01 0.02 0.04 0.06 0.04 0.04 0.02 0.01 0.01 0.01 0.01 0.00 0.00 0.00 0.00 0.00 0.00 0.00 0.00 0.00 0.01 0.01 0.02 0.01 0.01 0.02 0.02 0.02 0.01 0.01 0.01 0.01 0.01
0.17 0.24 0.22 0.18 0.16 0.13 0.12 0.14 0.10 0.08 0.08 0.07 0.05 0.03 0.02 0.02 0.02 0.02 0.03 0.02 0.02 0.01 0.01 0.01 0.01 0.01 0.01 0.00 0.00 0.00 0.00 0.00 0.00 0.00 0.00 0.00 0.01 0.01 0.02 0.02 0.02 0.02 0.02 0.02 0.01 0.01 0.01 0.01 0.01
0.26 0.22 0.18 0.16 0.15 0.14 0.17 0.12 0.09 0.12 0.12 0.10 0.05 0.02 0.02 0.04 0.03 0.03 0.02 0.01 0.02 0.01 0.00 0.00 0.01 0.01 0.01 0.00 0.00 0.00 0.00 0.00 0.00 0.00 0.00 0.00 0.00 0.01 0.01 0.01 0.01 0.01 0.02 0.02 0.02 0.02 0.02 0.03 0.03
0.25 0.19 0.15 0.17 0.17 0.14 0.15 0.12 0.10 0.14 0.12 0.09 0.05 0.04 0.02 0.05 0.04 0.03 0.03 0.02 0.02 0.01 0.00 0.00 0.00 0.00 0.00 0.00 0.00 0.00 0.00 0.00 0.00 0.00 0.00 0.00 0.00 0.01 0.01 0.01 0.01 0.01 0.02 0.02 0.02 0.01 0.01 0.02 0.03
0.25 0.18 0.16 0.18 0.14 0.10 0.08 0.05 0.06 0.08 0.06 0.04 0.04 0.04 0.03 0.06 0.06 0.03 0.03 0.04 0.02 0.01 0.00 0.00 0.00 0.00 0.00 0.00 0.00 0.00 0.00 0.00 0.00 0.00 0.00 0.00 0.00 0.01 0.01 0.01 0.01 0.01 0.01 0.02 0.02 0.01 0.01 0.01 0.02
0.25 0.19 0.14 0.16 0.12 0.11 0.08 0.04 0.03 0.03 0.03 0.02 0.02 0.03 0.04 0.05 0.04 0.03 0.02 0.03 0.02 0.01 0.00 0.00 0.00 0.00 0.00 0.00 0.00 0.00 0.00 0.00 0.00 0.00 0.00 0.00 0.00 0.00 0.01 0.01 0.01 0.01 0.01 0.02 0.03 0.02 0.02 0.02 0.01
0.27 0.20 0.13 0.14 0.12 0.14 0.09 0.05 0.04 0.01 0.02 0.03 0.03 0.02 0.04 0.03 0.02 0.02 0.02 0.02 0.01 0.00 0.00 0.00 0.00 0.00 0.00 0.00 0.00 0.00 0.00 0.00 0.00 0.00 0.00 0.00 0.00 0.00 0.00 0.01 0.01 0.02 0.02 0.02 0.02 0.02 0.03 0.03 0.02
0.26 0.18 0.12 0.12 0.12 0.08 0.05 0.03 0.02 0.02 0.02 0.03 0.05 0.06 0.07 0.05 0.03 0.03 0.03 0.02 0.02 0.01 0.01 0.01 0.00 0.00 0.00 0.00 0.00 0.00 0.00 0.00 0.00 0.00 0.00 0.00 0.00 0.00 0.00 0.00 0.01 0.02 0.02 0.02 0.03 0.03 0.03 0.02 0.02
0.19 0.13 0.09 0.11 0.09 0.06 0.04 0.02 0.01 0.02 0.03 0.06 0.07 0.08 0.09 0.05 0.03 0.02 0.02 0.01 0.01 0.01 0.01 0.00 0.00 0.00 0.00 0.00 0.00 0.00 0.00 0.00 0.00 0.00 0.00 0.00 0.00 0.00 0.00 0.00 0.01 0.01 0.02 0.03 0.02 0.02 0.01 0.01 0.01
0.17 0.11 0.10 0.11 0.08 0.08 0.06 0.03 0.02 0.03 0.02 0.02 0.03 0.04 0.05 0.03 0.02 0.02 0.01 0.00 0.00 0.00 0.00 0.00 0.00 0.00 0.00 0.00 0.00 0.00 0.00 0.00 0.00 0.00 0.00 0.00 0.00 0.00 0.00 0.00 0.00 0.00 0.01 0.02 0.02 0.01 0.01 0.01 0.01
0.17 0.14 0.14 0.14 0.09 0.09 0.09 0.05 0.02 0.02 0.02 0.03 0.05 0.05 0.04 0.02 0.02 0.01 0.00 0.00 0.00 0.00 0.00 0.00 0.00 0.00 0.00 0.00 0.00 0.00 0.00 0.00 0.00 0.00 0.00 0.00 0.00 0.00 0.00 0.00 0.00 0.00 0.01 0.01 0.02 0.02 0.01 0.01 0.02
0.14 0.18 0.19 0.17 0.13 0.09 0.09 0.05 0.03 0.03 0.03 0.04 0.06 0.04 0.03 0.01 0.01 0.00 0.00 0.00 0.00 0.00 0.00 0.00 0.00 0.00 0.00 0.00 0.00 0.00 0.00 0.00 0.00 0.00 0.00 0.00 0.00 0.00 0.00 0.00 0.00 0.00 0.01 0.01 0.01 0.01 0.01 0.02 0.02
0.16 0.25 0.19 0.14 0.11 0.09 0.07 0.08 0.05 0.04 0.03 0.06 0.03 0.02 0.02 0.01 0.01 0.00 0.00 0.00 0.00 0.00 0.00 0.00 0.00 0.00 0.00 0.00 0.00 0.00 0.00 0.00 0.00 0.00 0.00 0.00 0.00 0.00 0.00 0.00 0.00 0.00 0.01 0.01 0.01 0.01 0.01 0.02 0.02
0.15 0.17 0.15 0.09 0.07 0.10 0.11 0.10 0.07 0.05 0.03 0.04 0.02 0.02 0.03 0.02 0.01 0.00 0.00 0.00 0.00 0.00 0.00 0.00 0.00 0.00 0.00 0.00 0.00 0.00 0.00 0.00 0.00 0.00 0.00 0.00 0.00 0.00 0.00 0.00 0.00 0.00 0.01 0.01 0.01 0.01 0.01 0.01 0.02
0.15 0.11 0.08 0.08 0.07 0.08 0.08 0.06 0.06 0.06 0.03 0.03 0.02 0.03 0.03 0.03 0.01 0.01 0.00 0.00 0.00 0.00 0.00 0.00 0.00 0.00 0.00 0.00 0.00 0.00 0.00 0.00 0.00 0.00 0.00 0.00 0.00 0.00 0.00 0.00 0.00 0.00 0.00 0.01 0.01 0.01 0.01 0.01 0.01
0.11 0.08 0.07 0.10 0.11 0.08 0.06 0.05 0.05 0.05 0.04 0.03 0.02 0.02 0.02 0.01 0.01 0.01 0.00 0.00 0.00 0.00 0.00 0.00 0.00 0.00 0.00 0.00 0.00 0.00 0.00 0.00 0.00 0.00 0.00 0.00 0.00 0.00 0.00 0.00 0.00 0.00 0.00 0.00 0.01 0.01 0.01 0.01 0.02
0.08 0.09 0.12 0.10 0.09 0.07 0.05 0.05 0.07 0.07 0.04 0.04 0.03 0.01 0.01 0.01 0.00 0.00 0.00 0.00 0.00 0.00 0.00 0.00 0.00 0.00 0.00 0.00 0.00 0.00 0.00 0.00 0.00 0.00 0.00 0.00 0.00 0.00 0.00 0.00 0.00 0.01 0.00 0.00 0.01 0.01 0.02 0.02 0.01
0.10 0.10 0.09 0.07 0.05 0.05 0.06 0.05 0.06 0.08 0.06 0.03 0.02 0.01 0.01 0.00 0.00 0.00 0.00 0.00 0.00 0.00 0.00 0.00 0.00 0.00 0.00 0.00 0.00 0.00 0.00 0.00 0.00 0.00 0.00 0.00 0.00 0.00 0.00 0.01 0.01 0.01 0.00 0.00 0.00 0.01 0.01 0.02 0.01
0.10 0.08 0.08 0.07 0.07 0.05 0.06 0.05 0.04 0.05 0.05 0.04 0.01 0.01 0.01 0.00 0.00 0.00 0.00 0.00 0.00 0.00 0.00 0.00 0.00 0.00 0.00 0.00 0.00 0.00 0.00 0.00 0.00 0.00 0.00 0.00 0.00 0.00 0.00 0.00 0.01 0.01 0.01 0.01 0.01 0.01 0.01 0.02 0.02
0.10 0.06 0.06 0.04 0.03 0.03 0.02 0.03 0.02 0.02 0.03 0.03 0.02 0.01 0.01 0.00 0.00 0.00 0.00 0.00 0.00 0.00 0.00 0.00 0.00 0.00 0.00 0.00 0.00 0.00 0.00 0.00 0.00 0.00 0.00 0.00 0.00 0.00 0.00 0.00 0.00 0.00 0.01 0.02 0.01 0.01 0.01 0.02 0.03
0.07 0.04 0.03 0.01 0.01 0.01 0.01 0.02 0.01 0.01 0.02 0.02 0.01 0.01 0.01 0.00 0.00 0.00 0.00 0.00 0.00 0.00 0.00 0.00 0.00 0.00 0.00 0.00 0.00 0.00 0.00 0.00 0.00 0.00 0.00 0.00 0.00 0.00 0.01 0.01 0.00 0.00 0.01 0.02 0.02 0.01 0.01 0.03 0.04
0.03 0.02 0.02 0.01 0.01 0.01 0.01 0.03 0.02 0.01 0.01 0.01 0.00 0.00 0.00 0.00 0.00 0.00 0.00 0.00 0.00 0.00 0.00 0.00 0.00 0.00 0.00 0.00 0.00 0.00 0.00 0.00 0.00 0.00 0.00 0.00 0.00 0.00 0.01 0.01 0.01 0.00 0.01 0.01 0.01 0.02 0.02 0.03 0.04
0.01 0.01 0.02 0.02 0.02 0.01 0.01 0.02 0.01 0.01 0.00 0.01 0.00 0.00 0.00 0.00 0.00 0.00 0.00 0.00 0.00 0.00 0.00 0.00 0.00 0.00 0.00 0.00 0.00 0.00 0.00 0.00 0.00 0.00 0.00 0.00 0.00 0.00 0.01 0.02 0.01 0.01 0.01 0.02 0.01 0.02 0.02 0.03 0.03
0.01 0.02 0.03 0.04 0.03 0.02 0.01 0.01 0.00 0.00 0.00 0.00 0.00 0.00 0.00 0.00 0.00 0.00 0.00 0.00 0.00 0.00 0.00 0.00 0.00 0.00 0.00 0.00 0.00 0.00 0.00 0.00 0.00 0.00 0.00 0.00 0.00 0.00 0.01 0.02 0.02 0.01 0.01 0.03 0.03 0.03 0.02 0.03 0.04
0.01 0.02 0.02 0.02 0.02 0.02 0.01 0.00 0.00 0.00 0.00 0.00 0.00 0.00 0.00 0.00 0.00 0.00 0.00 0.00 0.00 0.00 0.00 0.00 0.00 0.00 0.00 0.00 0.00 0.00 0.00 0.00 0.00 0.00 0.00 0.00 0.00 0.00 0.01 0.01 0.02 0.02 0.02 0.02 0.04 0.03 0.03 0.04 0.04
0.01 0.01 0.01 0.01 0.02 0.02 0.01 0.00 0.00 0.00 0.00 0.00 0.00 0.00 0.00 0.00 0.00 0.00 0.00 0.00 0.00 0.00 0.00 0.00 0.00 0.00 0.00 0.00 0.00 0.00 0.00 0.00 0.00 0.00 0.00 0.00 0.00 0.00 0.00 0.01 0.01 0.01 0.02 0.02 0.03 0.03 0.02 0.03 0.04
0.01 0.01 0.01 0.01 0.01 0.01 0.01 0.00 0.00 0.00 0.00 0.00 0.00 0.00 0.00 0.00 0.00 0.00 0.00 0.00 0.00 0.00 0.00 0.00 0.00 0.00 0.00 0.00 0.00 0.00 0.00 0.00 0.00 0.00 0.00 0.00 0.00 0.00 0.00 0.00 0.00 0.01 0.01 0.02 0.02 0.03 0.03 0.04 0.05
0.01 0.01 0.01 0.01 0.00 0.00 0.00 0.00 0.00 0.00 0.00 0.00 0.00 0.00 0.00 0.00 0.00 0.00 0.00 0.00 0.00 0.00 0.00 0.00 0.00 0.00 0.00 0.00 0.00 0.00 0.00 0.00 0.00 0.00 0.00 0.00 0.00 0.00 0.00 0.00 0.01 0.00 0.00 0.01 0.01 0.01 0.02 0.03 0.05
MSLP
1010.41 1011.33 1012.42 1013.52 1014.49 1015.21 1015.61 1015.70 1015.52 1015.18 1014.79 1014.46 1014.24 1014.16 1014.20 1014.28 1014.32 1014.28 1014.10 1013.79 1013.38 1012.94 1012.54 1012.23 1012.06 1012.01 1012.07 1012.18 1012.29 1012.37 1012.39 1012.34 1012.24 1012.14 1012.05 1012.00 1011.99 1012.01 1012.04 1012.05 1012.03 1011.96 1011.86 1011.75 1011.65 1011.58 1011.57 1011.61 1011.69
1010.82 1011.86 1012.96 1013.98 1014.77 1015.24 1015.38 1015.21 1014.82 1014.33 1013.88 1013.55 1013.40 1013.42 1013.56 1013.75 1013.90 1013.93 1013.82 1013.57 1013.22 1012.84 1012.50 1012.25 1012.13 1012.13 1012.22 1012.34 1012.46 1012.54 1012.54 1012.48 1012.38 1012.27 1012.17 1012.10 1012.06 1012.05 1012.04 1012.02 1011.95 1011.86 1011.73 1011.60 1011.49 1011.42 1011.41 1011.45 1011.54
1011.43 1012.54 1013.59 1014.46 1015.03 1015.24 1015.10 1014.68 1014.11 1013.51 1013.02 1012.72 1012.65 1012.76 1013.01 1013.29 1013.51 1013.59 1013.52 1013.31 1013.01 1012.69 1012.41 1012.23 1012.18 1012.23 1012.35 1012.50 1012.62 1012.68 1012.67 1012.59 1012.47 1012.34 1012.22 1012.13 1012.07 1012.03 1011.98 1011.92 1011.82 1011.70 1011.55 1011.41 1011.30 1011.24 1011.23 1011.29 1011.38
1012.20 1013.31 1014.27 1014.96 1015.29 1015.23 1014.85 1014.23 1013.51 1012.86 1012.37 1012.13 1012.13 1012.34 1012.66 1012.99 1013.24 1013.34 1013.28 1013.08 1012.81 1012.54 1012.33 1012.22 1012.23 1012.34 1012.49 1012.65 1012.76 1012.79 1012.75 1012.64 1012.49 1012.33 1012.20 1012.09 1012.01 1011.94 1011.87 1011.78 1011.67 1011.53 1011.38 1011.24 1011.14 1011.09 1011.10 1011.16 1011.27
1013.00 1014.06 1014.89 1015.39 1015.49 1015.21 1014.64 1013.88 1013.10 1012.44 1012.01 1011.84 1011.93 1012.20 1012.56 1012.90 1013.13 1013.21 1013.12 1012.92 1012.67 1012.44 1012.28 1012.24 1012.31 1012.45 1012.63 1012.77 1012.86 1012.85 1012.76 1012.62 1012.43 1012.26 1012.11 1011.99 1011.90 1011.83 1011.75 1011.65 1011.52 1011.39 1011.24 1011.12 1011.03 1011.00 1011.02 1011.10 1011.21
1013.69 1014.65 1015.33 1015.64 1015.55 1015.11 1014.43 1013.62 1012.85 1012.26 1011.91 1011.84 1012.01 1012.33 1012.70 1013.01 1013.18 1013.20 1013.07 1012.84 1012.59 1012.39 1012.28 1012.29 1012.41 1012.58 1012.75 1012.88 1012.92 1012.87 1012.73 1012.54 1012.33 1012.14 1011.99 1011.88 1011.79 1011.72 1011.64 1011.55 1011.43 1011.29 1011.16 1011.06 1010.99 1010.98 1011.02 1011.10 1011.22
1014.11 1014.93 1015.45 1015.60 1015.38 1014.85 1014.14 1013.37 1012.69 1012.22 1012.00 1012.04 1012.28 1012.62 1012.96 1013.21 1013.31 1013.25 1013.06 1012.80 1012.55 1012.38 1012.32 1012.37 1012.52 1012.70 1012.86 1012.95 1012.94 1012.84 1012.66 1012.44 1012.21 1012.02 1011.88 1011.79 1011.72 1011.66 1011.59 1011.50 1011.38 1011.26 1011.14 1011.05 1011.00 1011.01 1011.06 1011.15 1011.27
1014.18 1014.85 1015.21 1015.23 1014.92 1014.38 1013.71 1013.05 1012.52 1012.20 1012.13 1012.28 1012.57 1012.92 1013.22 1013.40 1013.41 1013.27 1013.03 1012.75 1012.51 1012.37 1012.35 1012.44 1012.61 1012.80 1012.94 1012.99 1012.94 1012.79 1012.58 1012.34 1012.12 1011.94 1011.82 1011.75 1011.71 1011.67 1011.61 1011.52 1011.40 1011.27 1011.16 1011.07 1011.04 1011.05 1011.11 1011.21 1011.32
1013.93 1014.44 1014.64 1014.55 1014.21 1013.69 1013.13 1012.62 1012.26 1012.12 1012.20 1012.44 1012.78 1013.11 1013.35 1013.46 1013.40 1013.20 1012.92 1012.65 1012.43 1012.34 1012.36 1012.50 1012.69 1012.87 1012.99 1013.00 1012.92 1012.74 1012.51 1012.27 1012.07 1011.92 1011.84 1011.80 1011.78 1011.75 1011.69 1011.59 1011.46 1011.32 1011.19 1011.10 1011.07 1011.09 1011.16 1011.25 1011.36
1013.47 1013.80 1013.87 1013.70 1013.34 1012.89 1012.44 1012.10 1011.92 1011.94 1012.13 1012.45 1012.80 1013.10 1013.29 1013.33 1013.22 1012.99 1012.71 1012.47 1012.31 1012.27 1012.35 1012.52 1012.73 1012.91 1013.01 1013.00 1012.89 1012.69 1012.47 1012.24 1012.08 1011.97 1011.93 1011.93 1011.93 1011.90 1011.83 1011.70 1011.54 1011.37 1011.22 1011.12 1011.08 1011.10 1011.17 1011.27 1011.37
1012.97 1013.14 1013.08 1012.84 1012.48 1012.10 1011.77 1011.57 1011.53 1011.67 1011.95 1012.30 1012.64 1012.90 1013.04 1013.02 1012.88 1012.65 1012.41 1012.22 1012.13 1012.17 1012.31 1012.52 1012.75 1012.93 1013.01 1012.99 1012.87 1012.67 1012.46 1012.27 1012.15 1012.09 1012.09 1012.11 1012.12 1012.09 1012.00 1011.84 1011.64 1011.43 1011.25 1011.12 1011.07 1011.08 1011.15 1011.25 1011.35
1012.61 1012.63 1012.46 1012.16 1011.81 1011.47 1011.24 1011.14 1011.20 1011.41 1011.72 1012.05 1012.35 1012.56 1012.64 1012.59 1012.44 1012.25 1012.06 1011.95 1011.95 1012.05 1012.26 1012.51 1012.75 1012.93 1013.01 1012.98 1012.85 1012.68 1012.49 1012.34 1012.26 1012.24 1012.27 1012.31 1012.32 1012.28 1012.16 1011.96 1011.73 1011.48 1011.27 1011.12 1011.05 1011.06 1011.13 1011.23 1011.33
1012.54 1012.44 1012.17 1011.82 1011.45 1011.15 1010.96 1010.92 1011.02 1011.23 1011.51 1011.79 1012.03 1012.17 1012.20 1012.13 1011.99 1011.84 1011.73 1011.70 1011.78 1011.96 1012.21 1012.49 1012.74 1012.92 1013.00 1012.97 1012.86 1012.71 1012.55 1012.44 1012.39 1012.40 1012.44 1012.49 1012.50 1012.43 1012.29 1012.07 1011.80 1011.52 1011.29 1011.12 1011.04 1011.05 1011.12 1011.22 1011.31
1012.82 1012.62 1012.28 1011.87 1011.49 1011.19 1011.01 1010.97 1011.04 1011.21 1011.42 1011.61 1011.75 1011.82 1011.80 1011.72 1011.61 1011.52 1011.48 1011.52 1011.67 1011.90 1012.18 1012.47 1012.73 1012.90 1012.98 1012.97 1012.88 1012.76 1012.64 1012.55 1012.52 1012.54 1012.58 1012.62 1012.61 1012.52 1012.36 1012.12 1011.84 1011.56 1011.32 1011.15 1011.07 1011.07 1011.14 1011.23 1011.33
1013.38 1013.10 1012.69 1012.25 1011.85 1011.53 1011.34 1011.26 1011.27 1011.35 1011.45 1011.53 1011.58 1011.57 1011.51 1011.43 1011.35 1011.30 1011.32 1011.43 1011.61 1011.87 1012.16 1012.45 1012.70 1012.87 1012.96 1012.97 1012.91 1012.82 1012.73 1012.67 1012.64 1012.65 1012.67 1012.68 1012.64 1012.54 1012.37 1012.13 1011.87 1011.60 1011.37 1011.21 1011.13 1011.13 1011.19 1011.28 1011.36
1014.06 1013.72 1013.28 1012.81 1012.40 1012.07 1011.84 1011.71 1011.64 1011.61 1011.59 1011.55 1011.49 1011.42 1011.33 1011.25 1011.20 1011.20 1011.27 1011.41 1011.62 1011.87 1012.14 1012.41 1012.65 1012.82 1012.93 1012.97 1012.96 1012.91 1012.85 1012.80 1012.77 1012.75 1012.73 1012.69 1012.62 1012.50 1012.32 1012.10 1011.86 1011.63 1011.43 1011.29 1011.22 1011.22 1011.27 1011.34 1011.40
1014.67 1014.30 1013.85 1013.39 1012.99 1012.66 1012.40 1012.20 1012.04 1011.89 1011.75 1011.60 1011.46 1011.33 1011.23 1011.16 1011.15 1011.20 1011.30 1011.45 1011.65 1011.88 1012.12 1012.35 1012.57 1012.75 1012.89 1012.98 1013.02 1013.02 1013.00 1012.96 1012.90 1012.84 1012.76 1012.67 1012.55 1012.41 1012.24 1012.04 1011.84 1011.65 1011.49 1011.38 1011.32 1011.32 1011.35 1011.40 1011.44
1015.02 1014.66 1014.24 1013.83 1013.47 1013.16 1012.89 1012.63 1012.39 1012.13 1011.88 1011.63 1011.42 1011.25 1011.15 1011.11 1011.15 1011.23 1011.36 1011.52 1011.69 1011.88 1012.08 1012.27 1012.47 1012.66 1012.84 1012.98 1013.09 1013.16 1013.17 1013.14 1013.06 1012.95 1012.82 1012.66 1012.49 1012.32 1012.15 1011.98 1011.82 1011.67 1011.56 1011.47 1011.42 1011.40 1011.41 1011.43 1011.46
1015.03 1014.71 1014.38 1014.06 1013.78 1013.51 1013.24 1012.95 1012.63 1012.27 1011.91 1011.58 1011.31 1011.13 1011.04 1011.05 1011.14 1011.27 1011.43 1011.59 1011.73 1011.88 1012.02 1012.18 1012.36 1012.56 1012.78 1012.99 1013.18 1013.31 1013.38 1013.36 1013.26 1013.11 1012.91 1012.69 1012.47 1012.26 1012.08 1011.93 1011.81 1011.71 1011.63 1011.56 1011.51 1011.47 1011.45 1011.45 1011.44
1014.70 1014.47 1014.27 1014.09 1013.92 1013.73 1013.49 1013.17 1012.77 1012.32 1011.86 1011.45 1011.13 1010.94 1010.89 1010.95 1011.10 1011.29 1011.48 1011.64 1011.77 1011.87 1011.96 1012.08 1012.25 1012.46 1012.73 1013.01 1013.27 1013.47 1013.59 1013.60 1013.50 1013.31 1013.05 1012.77 1012.50 1012.26 1012.07 1011.93 1011.83 1011.76 1011.71 1011.65 1011.59 1011.54 1011.48 1011.44 1011.42
1014.13 1014.05 1014.03 1014.03 1014.01 1013.91 1013.70 1013.35 1012.88 1012.32 1011.76 1011.26 1010.90 1010.70 1010.67 1010.79 1011.01 1011.27 1011.50 1011.68 1011.79 1011.86 1011.91 1012.00 1012.14 1012.37 1012.67 1013.00 1013.34 1013.61 1013.79 1013.83 1013.74 1013.53 1013.24 1012.91 1012.60 1012.33 1012.13 1011.99 1011.91 1011.86 1011.81 1011.76 1011.69 1011.60 1011.52 1011.45 1011.40
1013.50 1013.62 1013.81 1014.02 1014.16 1014.17 1013.99 1013.60 1013.04 1012.37 1011.68 1011.09 1010.66 1010.43 1010.43 1010.60 1010.89 1011.21 1011.50 1011.70 1011.82 1011.87 1011.88 1011.93 1012.05 1012.27 1012.59 1012.97 1013.36 1013.70 1013.93 1014.01 1013.94 1013.74 1013.43 1013.09 1012.75 1012.47 1012.26 1012.12 1012.04 1012.00 1011.95 1011.89 1011.81 1011.70 1011.58 1011.49 1011.42
1012.99 1013.34 1013.77 1014.19 1014.50 1014.60 1014.44 1014.00 1013.34 1012.53 1011.70 1010.99 1010.47 1010.20 1010.19 1010.40 1010.74 1011.12 1011.46 1011.70 1011.83 1011.87 1011.86 1011.88 1011.97 1012.17 1012.49 1012.89 1013.31 1013.69 1013.97 1014.10 1014.07 1013.89 1013.60 1013.26 1012.93 1012.64 1012.43 1012.29 1012.22 1012.18 1012.14 1012.07 1011.97 1011.84 1011.70 1011.58 1011.50
1012.73 1013.31 1013.98 1014.61 1015.06 1015.24 1015.08 1014.58 1013.79 1012.83 1011.85 1010.99 1010.36 1010.02 1009.98 1010.19 1010.56 1010.99 1011.38 1011.66 1011.81 1011.85 1011.83 1011.81 1011.87 1012.05 1012.35 1012.74 1013.17 1013.58 1013.90 1014.08 1014.09 1013.95 1013.70 1013.39 1013.08 1012.81 1012.61 1012.49 1012.42 1012.39 1012.35 1012.28 1012.17 1012.03 1011.88 1011.75 1011.65
1012.76 1013.57 1014.44 1015.23 1015.80 1016.03 1015.85 1015.27 1014.36 1013.26 1012.11 1011.10 1010.34 1009.90 1009.80 1009.98 1010.36 1010.81 1011.23 1011.54 1011.72 1011.77 1011.74 1011.71 1011.74 1011.89 1012.15 1012.52 1012.95 1013.36 1013.71 1013.92 1013.98 1013.89 1013.70 1013.44 1013.17 1012.94 1012.77 1012.67 1012.62 1012.60 1012.57 1012.51 1012.41 1012.27 1012.11 1011.97 1011.87
1013.05 1014.02 1015.05 1015.96 1016.60 1016.84 1016.64 1015.98 1014.96 1013.71 1012.43 1011.27 1010.38 1009.83 1009.64 1009.77 1010.11 1010.56 1010.99 1011.33 1011.53 1011.60 1011.59 1011.55 1011.57 1011.68 1011.91 1012.25 1012.65 1013.06 1013.41 1013.65 1013.76 1013.73 1013.59 1013.40 1013.19 1013.01 1012.88 1012.81 1012.79 1012.78 1012.77 1012.73 1012.65 1012.53 1012.38 1012.24 1012.14
1013.47 1014.54 1015.65 1016.61 1017.27 1017.50 1017.25 1016.53 1015.43 1014.09 1012.69 1011.42 1010.42 1009.76 1009.48 1009.52 1009.81 1010.23 1010.65 1011.00 1011.23 1011.33 1011.35 1011.33 1011.34 1011.44 1011.64 1011.95 1012.32 1012.71 1013.05 1013.31 1013.45 1013.48 1013.41 1013.28 1013.13 1013.00 1012.92 1012.89 1012.89 1012.92 1012.93 1012.92 1012.86 1012.77 1012.65 1012.53 1012.43
1013.89 1014.98 1016.07 1017.01 1017.64 1017.84 1017.55 1016.79 1015.65 1014.27 1012.83 1011.49 1010.41 1009.66 1009.29 1009.24 1009.46 1009.82 1010.21 1010.56 1010.81 1010.95 1011.00 1011.02 1011.06 1011.17 1011.36 1011.64 1011.99 1012.35 1012.68 1012.95 1013.11 1013.18 1013.16 1013.10 1013.01 1012.93 1012.89 1012.90 1012.93 1012.99 1013.03 1013.05 1013.03 1012.98 1012.89 1012.79 1012.71
1014.18 1015.18 1016.18 1017.03 1017.58 1017.72 1017.40 1016.64 1015.52 1014.16 1012.74 1011.41 1010.30 1009.50 1009.05 1008.92 1009.05 1009.34 1009.69 1010.02 1010.29 1010.47 1010.58 1010.65 1010.74 1010.88 1011.08 1011.36 1011.68 1012.03 1012.35 1012.61 1012.79 1012.88 1012.91 1012.89 1012.85 1012.82 1012.82 1012.85 1012.91 1012.98 1013.06 1013.11 1013.13 1013.11 1013.07 1013.01 1012.95
1014.28 1015.12 1015.95 1016.64 1017.07 1017.13 1016.80 1016.07 1015.02 1013.75 1012.42 1011.15 1010.08 1009.28 1008.79 1008.58 1008.63 1008.84 1009.13 1009.44 1009.71 1009.93 1010.09 1010.24 1010.39 1010.57 1010.81 1011.10 1011.42 1011.75 1012.06 1012.31 1012.50 1012.61 1012.67 1012.68 1012.68 1012.68 1012.71 1012.76 1012.84 1012.93 1013.02 1013.10 1013.16 1013.18 1013.18 1013.16 1013.12
Thickness
5790 5787 5782 5768 5749 5735 5733 5745 5754 5757 5762 5773 5779 5774 5765 5758 5754 5747 5767 5774 5773 5770 5768 5766 5765 5763 5762 5761 5761 5760 5760 5760 5759 5759 5758 5758 5757 5757 5756 5756 5756 5756 5756 5757 5758 5758 5759 5759 5760
5789 5784 5773 5757 5738 5726 5733 5748 5753 5762 5772 5777 5777 5773 5766 5760 5767 5766 5768 5772 5772 5769 5766 5764 5763 5761 5760 5758 5758 5757 5756 5756 5756 5755 5754 5754 5753 5753 5752 5752 5752 5753 5753 5754 5755 5755 5756 5757 5757
5787 5782 5762 5747 5736 5730 5737 5751 5757 5770 5779 5778 5771 5770 5765 5761 5767 5767 5770 5771 5769 5767 5764 5762 5760 5759 5757 5756 5754 5753 5753 5752 5752 5751 5750 5750 5749 5749 5749 5749 5749 5749 5749 5750 5751 5752 5753 5753 5754
5780 5767 5756 5741 5737 5745 5751 5757 5762 5767 5775 5778 5771 5761 5764 5772 5772 5771 5771 5770 5767 5764 5762 5760 5758 5756 5755 5753 5752 5750 5749 5748 5747 5747 5746 5746 5745 5745 5745 5745 5745 5745 5746 5746 5747 5748 5749 5750 5751
5773 5756 5742 5734 5740 5751 5758 5764 5767 5765 5769 5771 5767 5754 5755 5769 5775 5773 5770 5768 5765 5762 5760 5758 5756 5754 5752 5751 5749 5748 5746 5745 5744 5743 5742 5742 5741 5741 5741 5741 5741 5741 5742 5743 5744 5745 5745 5747 5748
5758 5748 5732 5728 5739 5750 5759 5766 5768 5766 5767 5769 5764 5753 5752 5766 5768 5768 5768 5766 5764 5761 5758 5756 5754 5752 5750 5749 5747 5745 5744 5742 5741 5739 5739 5738 5737 5737 5737 5737 5737 5737 5738 5739 5740 5741 5742 5743 5745
5750 5740 5732 5735 5737 5744 5758 5767 5765 5763 5764 5767 5768 5751 5751 5760 5766 5768 5767 5764 5762 5760 5757 5754 5752 5750 5749 5747 5745 5743 5742 5740 5738 5737 5735 5735 5734 5734 5734 5733 5733 5734 5734 5735 5736 5737 5738 5739 5741
5756 5742 5735 5735 5737 5742 5758 5766 5771 5768 5765 5775 5771 5752 5748 5759 5766 5765 5763 5760 5758 5756 5755 5753 5751 5749 5747 5746 5744 5742 5740 5738 5736 5734 5733 5732 5732 5731 5730 5730 5730 5730 5730 5731 5732 5733 5734 5735 5737
5756 5733 5727 5734 5739 5745 5758 5761 5769 5776 5771 5770 5770 5766 5766 5767 5764 5759 5755 5753 5753 5752 5752 5751 5749 5748 5746 5744 5742 5740 5738 5736 5734 5732 5731 5729 5728 5727 5727 5726 5726 5726 5727 5727 5728 5729 5730 5731 5733
5743 5726 5735 5748 5751 5751 5757 5760 5764 5763 5758 5757 5760 5764 5767 5763 5759 5754 5750 5748 5748 5749 5750 5751 5749 5747 5744 5743 5741 5738 5735 5733 5731 5729 5728 5726 5725 5724 5723 5723 5722 5722 5723 5723 5724 5725 5726 5727 5728
5742 5734 5745 5753 5758 5758 5757 5760 5766 5756 5748 5753 5754 5756 5759 5757 5754 5752 5751 5750 5750 5750 5750 5750 5748 5746 5744 5741 5739 5736 5733 5730 5728 5726 5725 5723 5722 5720 5719 5718 5718 5717 5718 5718 5719 5720 5721 5722 5724
5740 5744 5750 5753 5759 5757 5756 5759 5758 5757 5757 5765 5766 5763 5759 5754 5753 5752 5751 5750 5750 5749 5749 5749 5748 5745 5742 5739 5737 5734 5731 5728 5725 5724 5722 5720 5717 5716 5714 5713 5712 5712 5712 5713 5714 5715 5716 5718 5719
5734 5739 5748 5753 5755 5756 5757 5755 5755 5758 5765 5767 5765 5761 5757 5754 5753 5754 5754 5752 5750 5748 5748 5747 5746 5743 5740 5737 5734 5731 5728 5726 5723 5721 5719 5717 5714 5711 5709 5708 5708 5707 5708 5708 5708 5710 5711 5713 5715
5735 5739 5742 5745 5747 5751 5749 5752 5753 5755 5763 5761 5759 5756 5756 5754 5754 5753 5752 5750 5749 5748 5747 5746 5745 5742 5739 5735 5731 5728 5726 5723 5720 5718 5716 5714 5711 5708 5705 5704 5703 5702 5703 5703 5704 5705 5706 5707 5709
5737 5731 5733 5738 5744 5747 5748 5740 5747 5758 5759 5754 5754 5755 5755 5755 5755 5754 5754 5752 5750 5748 5747 5745 5743 5740 5737 5733 5729 5726 5723 5720 5717 5715 5712 5710 5707 5704 5702 5699 5698 5698 5698 5698 5699 5700 5701 5702 5704
5726 5718 5713 5731 5741 5746 5738 5726 5747 5757 5753 5749 5750 5752 5752 5754 5756 5756 5756 5754 5751 5748 5746 5744 5743 5738 5734 5730 5727 5724 5720 5717 5714 5711 5709 5706 5704 5701 5698 5696 5694 5693 5693 5693 5693 5693 5694 5695 5697
5709 5703 5707 5723 5740 5740 5733 5727 5746 5753 5751 5747 5748 5749 5750 5751 5753 5755 5756 5755 5752 5749 5745 5741 5739 5735 5732 5728 5725 5721 5718 5715 5712 5709 5706 5703 5701 5698 5695 5692 5690 5690 5689 5688 5689 5688 5688 5689 5691
5696 5701 5708 5715 5731 5733 5727 5730 5743 5750 5750 5747 5747 5747 5747 5748 5751 5754 5755 5754 5751 5748 5744 5740 5737 5734 5730 5726 5722 5718 5715 5712 5709 5706 5703 5700 5698 5695 5693 5690 5687 5686 5684 5684 5684 5683 5684 5685 5687
5709 5707 5707 5718 5733 5730 5726 5729 5739 5746 5746 5744 5744 5745 5746 5749 5752 5754 5753 5751 5748 5745 5741 5738 5735 5731 5728 5723 5718 5714 5710 5708 5706 5703 5701 5698 5695 5693 5690 5687 5685 5683 5681 5680 5680 5680 5680 5680 5682
5709 5706 5708 5720 5734 5731 5725 5729 5740 5745 5746 5748 5747 5747 5748 5748 5748 5749 5749 5748 5746 5742 5740 5737 5734 5731 5728 5724 5719 5715 5711 5707 5704 5701 5699 5696 5694 5691 5689 5685 5682 5680 5678 5677 5677 5676 5675 5676 5678
5709 5707 5712 5716 5728 5732 5724 5722 5732 5743 5749 5750 5752 5753 5753 5752 5749 5748 5746 5745 5743 5741 5739 5738 5734 5731 5728 5724 5719 5714 5709 5704 5701 5698 5696 5694 5692 5690 5687 5684 5682 5679 5677 5675 5674 5674 5672 5671 5673
5704 5721 5724 5722 5713 5707 5718 5701 5724 5735 5740 5745 5749 5750 5752 5755 5752 5749 5746 5744 5743 5742 5741 5738 5734 5731 5727 5723 5718 5711 5705 5700 5698 5696 5694 5693 5691 5689 5686 5684 5681 5679 5676 5674 5673 5672 5671 5670 5668
5717 5730 5726 5722 5712 5705 5711 5703 5713 5731 5731 5739 5748 5752 5754 5755 5753 5750 5748 5746 5745 5743 5741 5737 5733 5730 5726 5722 5717 5711 5705 5701 5698 5696 5693 5691 5689 5688 5686 5683 5681 5678 5676 5674 5672 5671 5670 5669 5668
5732 5724 5718 5709 5701 5691 5706 5701 5707 5721 5735 5743 5749 5753 5754 5754 5753 5751 5749 5746 5743 5742 5740 5736 5732 5728 5725 5721 5717 5712 5706 5701 5698 5694 5691 5689 5687 5686 5685 5683 5680 5678 5675 5673 5672 5671 5670 5668 5668
5723 5702 5684 5683 5678 5686 5708 5705 5711 5738 5749 5752 5751 5751 5753 5753 5751 5748 5745 5743 5741 5740 5738 5735 5731 5727 5724 5721 5716 5712 5707 5703 5698 5695 5691 5688 5686 5684 5683 5682 5679 5677 5675 5674 5672 5670 5669 5669 5668
5719 5706 5684 5676 5676 5685 5704 5703 5721 5747 5755 5758 5756 5754 5752 5750 5750 5749 5747 5745 5742 5740 5737 5734 5731 5727 5724 5720 5716 5713 5708 5704 5700 5697 5693 5690 5687 5685 5684 5682 5680 5677 5676 5674 5672 5670 5669 5669 5668
5717 5707 5709 5691 5689 5682 5692 5711 5731 5748 5749 5750 5750 5749 5748 5749 5749 5749 5748 5745 5743 5740 5738 5735 5731 5728 5724 5721 5717 5712 5709 5705 5701 5699 5695 5692 5689 5687 5685 5682 5680 5677 5676 5674 5672 5670 5669 5669 5668
5731 5720 5700 5691 5679 5674 5689 5701 5708 5731 5738 5744 5745 5746 5747 5749 5749 5749 5748 5746 5744 5742 5739 5736 5732 5728 5725 5721 5717 5714 5709 5706 5703 5699 5696 5693 5690 5688 5685 5682 5680 5677 5675 5673 5671 5669 5669 5668 5667
5726 5720 5706 5691 5687 5676 5677 5693 5731 5736 5741 5743 5745 5749 5749 5749 5749 5749 5747 5746 5744 5741 5738 5735 5732 5728 5724 5721 5717 5714 5710 5707 5703 5700 5697 5694 5691 5688 5685 5683 5680 5677 5674 5673 5671 5669 5668 5667 5667
5734 5726 5711 5694 5690 5685 5679 5695 5743 5744 5747 5748 5748 5750 5752 5752 5751 5750 5748 5744 5741 5739 5737 5734 5731 5728 5725 5721 5717 5713 5710 5706 5703 5700 5697 5695 5692 5689 5686 5683 5680 5677 5675 5673 5671 5669 5668 5667 5666